Regional Weather Roundup
Issued by NWS Huntsville, AL

Home | Current Version | Previous Version | Text Only | Print | Product List | Glossary On
Versions: 1 2 3 4 5 6 7 8 9 10 11 12 13 14 15 16 17 18 19 20 21 22 23 24 25 26 27
000
ASUS44 KHUN 280710
RWRHUN

WEATHER ROUNDUP FOR THE TENNESSEE VALLEY
NATIONAL WEATHER SERVICE HUNTSVILLE AL
200 AM CDT SUN AUG 28 2016

ALZ001>004-280800-
NORTHWEST ALABAMA

CITY           SKY/WX    TMP DP  RH WIND       PRES   REMARKS
SHOALS AIRPORT CLEAR     75  72  90 SE3       30.08F
SHOALS TVA RES   N/A     75 N/A N/A MISG        N/A
$$

ALZ005>007-016-280800-
NORTH CENTRAL ALABAMA

CITY           SKY/WX    TMP DP  RH WIND       PRES   REMARKS
CULLMAN AG STN   N/A     72 N/A N/A CALM        N/A
DECATUR AP     CLEAR     72  71  97 NE5       30.09F
HUNTSVILLE AP  CLEAR     77  71  82 E5        30.08F
MERIDIANVILLE  CLEAR     70  66  88 CALM      30.10F FOG
REDSTONE ARSN  CLEAR     75  72  91 NE2       30.08F
VINEMONT AP    FAIR      74  70  87 CALM      30.11F
$$

ALZ008>010-280800-
NORTHEAST ALABAMA

CITY           SKY/WX    TMP DP  RH WIND       PRES   REMARKS
ALBERTVILLE    PTCLDY    73  73 100 CALM      30.10S
FORT PAYNE     CLEAR     70  68  94 CALM      30.10F
SCOTTSBORO AP  CLEAR     73  73 100 CALM      30.11S
SCOTTSBORO HCN   N/A     72 N/A N/A MISG        N/A
VALLEY HEAD      N/A     73 N/A N/A MISG        N/A
$$

TNZ076-096-097-280800-
SOUTHEASTERN MIDDLE TENNESSEE

CITY           SKY/WX    TMP DP  RH WIND       PRES   REMARKS
TULLAHOMA      CLEAR     72  68  88 CALM      30.13F
WINCHESTER     CLEAR     72  70  94 CALM      30.12F
$$

...SURROUNDING SITES...

CITY           SKY/WX    TMP DP  RH WIND       PRES   REMARKS
ATLANTA        CLEAR     78  71  79 NE9       30.11S
ANNISTON       CLEAR     76  69  79 NE6       30.07F
BIRMINGHAM     CLEAR     76  69  79 CALM      30.08F
CHATTANOOGA    CLEAR     76  69  79 NE7       30.12F
DALTON         CLEAR     72  72 100 CALM      30.11S
GADSDEN        CLEAR     73  71  93 CALM      30.08F
GOLDEN TRNGL   CLEAR     73  66  78 CALM      30.02F
JACKSON TN     CLEAR     73  73 100 N3        30.07F FOG
MEMPHIS        CLEAR     81  71  71 E5        30.05F
NASHVILLE      CLEAR     73  71  93 CALM      30.11F
OXFORD MS      FAIR      73  72  94 E3        30.07F
ROME           CLEAR     75  71  87 CALM      30.09F
SAVANNAH       PTCLDY    72  72 100 CALM      30.06F
TUPELO         MOCLDY    76  72  87 N6        30.05S
TUSCALOOSA     CLEAR     73  72  96 CALM      30.03F
$$

...GULF COAST WEATHER...

CITY           SKY/WX    TMP DP  RH WIND       PRES   REMARKS
GULFPORT       CLEAR     78  76  93 NE5       29.97F
PASCAGOULA     CLEAR     74  74 100 CALM      29.98F
MOBILE         CLEAR     74  72  93 N3        30.00F
GULF SHORES    CLOUDY    75  75 100 N5        29.98F
PENSACOLA      CLOUDY    77  75  93 NW5       29.97F
DESTIN         CLOUDY    83  74  74 NE6       29.98S
PANAMA CITY    CLEAR     79  73  83 NE8       29.97F
APPALACHICOLA  CLEAR     78  77  96 NE7       29.96F
$$





USA.gov is the U.S. government's official web portal to all federal, state and local government web resources and services.